SCP
8 10 9 7 5 7 10 10 9 9 10 9 6 4 3 2 2 2 3 3 3 3 2 2 2 2 2 2 1 1 1 1 1 2 1 1 1 2 2 2 2 2 2
9 10 10 7 6 7 10 10 9 9 9 8 6 4 3 2 2 2 2 3 4 4 3 2 2 2 2 2 2 2 2 2 2 2 2 2 2 2 2 2 2 2 2
8 9 8 7 6 7 9 9 9 8 8 7 5 4 3 2 2 2 2 3 4 5 4 3 3 3 3 3 2 3 3 3 3 4 4 4 3 2 2 2 2 2 2
8 7 6 6 6 6 6 7 7 7 6 5 4 4 3 3 2 2 3 4 5 6 5 4 4 4 4 4 3 4 4 4 4 4 5 5 4 3 2 2 1 1 1
7 7 6 5 5 5 5 5 5 6 5 4 4 3 3 3 3 3 4 5 6 6 6 6 5 4 4 4 4 4 4 4 5 4 4 5 4 4 3 2 1 1 1
6 5 5 5 5 6 6 6 5 5 5 5 4 4 4 3 3 3 4 4 4 5 7 7 5 3 3 4 4 4 4 5 5 4 4 4 4 3 3 2 1 1 1
5 5 5 6 7 8 8 7 6 5 5 5 5 5 5 4 4 4 3 3 3 3 5 6 6 4 4 4 5 5 5 5 4 4 4 3 3 3 3 2 1 1 1
5 6 9 10 11 10 10 9 7 5 5 5 5 6 5 5 4 3 3 2 2 2 3 4 6 6 6 6 6 6 5 4 4 3 3 3 3 3 2 2 1 1 1
7 10 15 17 17 16 13 10 8 6 5 4 4 5 5 5 4 3 2 2 2 2 2 3 4 5 6 6 6 5 4 4 3 3 3 3 3 3 3 2 2 1 1
10 13 18 19 19 18 14 10 8 6 5 4 3 4 4 5 5 4 3 3 2 2 2 3 3 3 4 4 4 3 2 2 3 3 3 4 3 3 3 3 2 2 1
11 13 15 15 15 14 11 9 8 6 5 4 3 3 3 4 4 4 4 3 3 3 2 3 3 2 3 3 2 1 1 1 2 3 4 4 3 3 3 3 2 2 1
9 10 11 11 12 10 8 8 8 7 6 4 3 3 3 3 3 3 3 3 3 3 3 3 3 2 2 2 2 1 1 1 2 3 3 3 3 2 2 2 2 2 2
7 8 8 10 12 12 10 9 9 9 8 7 6 5 4 3 3 3 3 3 3 3 3 3 3 3 3 3 2 2 2 2 2 3 3 3 3 2 2 2 2 2 2
7 7 8 10 13 13 11 10 10 10 10 10 9 7 6 5 4 4 4 4 4 4 3 3 3 3 3 3 3 3 3 3 3 3 3 3 2 2 2 2 2 2 2
9 8 9 11 13 13 11 10 10 12 13 13 12 10 9 8 6 5 5 5 5 5 4 4 4 4 3 3 3 3 3 3 3 3 3 3 2 2 2 2 2 2 2
11 9 9 10 11 11 9 9 10 12 14 15 14 13 12 11 9 7 6 6 6 6 6 5 5 5 4 3 3 3 3 3 3 3 3 3 2 2 1 1 1 2 2
10 9 8 7 8 8 7 8 9 11 13 14 14 15 15 13 11 8 7 6 6 6 6 6 6 5 4 3 2 2 3 3 3 3 3 3 2 2 2 1 1 2 2
10 8 7 6 6 6 7 8 9 11 13 14 15 16 16 15 12 8 7 6 6 5 5 5 5 4 4 2 1 1 2 2 3 3 3 3 3 2 2 1 2 2 2
11 9 7 6 6 6 6 8 9 11 12 14 16 17 16 15 13 9 6 5 5 4 4 4 4 4 3 1 1 0 1 2 2 2 2 2 2 2 1 1 2 2 2
14 13 11 8 7 6 6 7 9 10 11 13 15 16 16 15 13 10 7 6 5 4 3 3 4 4 3 1 1 0 1 1 1 2 2 2 2 1 1 1 1 1 1
17 17 15 11 8 6 6 7 8 9 10 12 13 14 14 13 12 10 8 6 5 4 3 3 4 4 3 1 1 0 1 1 1 1 2 2 1 1 0 1 1 1 1
18 18 16 12 9 6 6 6 6 7 9 11 11 11 11 10 9 9 7 5 4 4 4 5 4 3 2 1 1 0 0 1 1 1 1 1 1 0 0 0 1 1 0
14 14 13 10 8 6 5 5 5 7 8 9 8 8 8 7 6 6 5 4 4 5 6 7 6 4 2 1 1 0 0 0 1 1 1 0 0 0 0 0 0 0 0
8 8 8 7 6 5 4 4 5 6 8 7 6 6 6 5 5 4 3 3 3 4 6 8 7 5 2 2 1 0 0 0 0 0 0 0 0 0 0 0 0 0 0
4 4 4 3 3 2 3 3 4 6 7 7 6 6 6 5 4 3 2 2 1 2 3 5 6 4 2 2 1 1 0 0 0 0 0 0 0 0 0 0 0 0 0
2 2 2 2 1 1 2 3 4 6 7 6 6 6 5 4 3 2 2 1 1 0 1 2 3 3 2 1 1 0 0 0 0 0 0 0 0 0 0 0 0 0 0
Wind_Speed
8 8 9 9 9 8 8 9 8 7 6 4 4 3 2 2 1 2 3 3 3 3 3 2 2 3 3 3 3 2 2 1 1 2 2 2 1 0 1 1 1 1 2
7 8 8 8 9 8 8 8 8 7 6 5 4 3 3 2 2 1 1 2 3 3 3 3 2 2 3 3 2 2 2 1 1 2 2 2 3 3 1 0 1 1 1
12 10 9 8 9 9 8 8 8 7 6 6 4 3 3 2 1 1 1 1 2 3 3 3 3 3 3 2 2 2 3 1 0 1 3 3 2 2 2 1 0 0 0
10 10 10 8 9 8 7 7 8 7 6 7 6 7 5 3 3 2 2 1 2 2 3 3 3 3 2 3 2 2 2 3 1 0 1 2 3 2 1 2 1 1 1
11 11 10 9 8 7 6 6 7 6 6 6 6 6 4 3 2 2 2 2 1 2 2 3 3 3 2 3 2 2 2 2 2 2 1 1 1 2 2 1 2 2 2
9 9 8 7 6 5 5 6 6 5 5 6 5 5 5 5 5 4 3 2 1 1 1 2 2 2 2 2 2 2 2 2 2 2 2 2 2 2 2 2 2 2 2
8 8 8 8 7 7 6 6 7 5 4 5 5 5 5 5 6 5 4 3 2 2 2 2 2 2 2 2 2 2 2 2 2 2 2 2 2 2 3 2 2 1 2
7 7 7 7 8 8 7 7 7 6 5 5 4 4 4 3 3 3 3 3 2 2 3 3 3 3 3 2 2 1 1 1 2 2 2 2 2 2 3 3 3 1 1
7 7 7 7 7 7 6 7 7 6 5 5 5 4 4 3 3 3 3 2 2 2 2 2 2 2 3 2 2 1 2 1 1 2 2 2 2 2 2 2 3 4 2
6 6 7 7 6 5 5 5 6 6 5 5 4 4 3 3 3 3 3 3 2 2 2 2 2 2 2 2 2 1 1 2 2 1 1 2 2 2 1 2 2 3 3
6 5 6 6 7 6 6 5 4 4 4 4 4 4 3 3 3 3 3 2 2 2 2 2 2 2 3 2 2 2 2 2 2 2 2 2 2 2 1 1 2 2 2
5 6 7 6 6 6 6 5 5 5 4 4 4 4 3 3 3 2 3 3 3 2 2 2 2 2 2 2 3 3 3 3 2 2 2 2 2 2 2 2 2 2 2
4 4 5 5 6 6 5 5 5 5 4 4 4 4 3 3 3 3 3 3 3 2 2 2 2 2 2 2 3 3 3 3 3 3 3 3 2 2 2 2 2 2 2
4 4 5 4 5 5 5 5 4 4 4 4 4 4 3 3 3 3 3 3 3 3 2 3 3 3 3 3 2 3 3 3 3 3 3 3 3 4 3 3 3 3 2
4 4 5 5 5 4 4 4 4 4 5 4 4 4 3 3 2 2 2 2 2 2 2 2 2 2 2 2 3 3 3 3 3 3 3 3 3 3 3 3 3 3 3
4 3 4 5 5 5 5 4 4 4 4 4 4 4 3 3 2 2 2 2 2 2 1 2 2 2 2 3 3 3 3 2 3 3 3 3 2 3 4 4 4 5 4
5 4 5 5 5 5 5 4 4 3 3 3 3 3 4 4 3 3 2 2 2 2 2 2 2 2 3 3 3 3 2 2 3 3 2 2 2 2 1 3 4 4 6
5 4 4 4 3 3 4 4 3 3 2 1 2 2 3 3 2 2 2 2 2 2 2 2 2 2 2 2 2 2 2 2 2 2 2 2 2 2 2 2 2 3 3
4 4 3 3 3 3 3 4 3 3 3 1 1 2 2 3 2 2 3 2 2 2 2 2 2 2 2 2 3 2 1 1 2 2 1 2 2 3 3 2 2 3 3
3 3 3 3 3 2 3 4 3 3 3 2 2 2 2 3 3 3 2 1 1 1 1 1 1 2 2 3 3 3 1 1 1 1 1 2 3 3 3 3 3 3 4
4 4 3 3 2 3 4 4 3 3 3 2 2 1 1 2 2 2 1 2 1 1 1 1 1 1 2 3 3 3 2 2 1 1 2 2 4 4 4 3 3 5 5
3 3 2 1 1 3 4 3 2 3 2 2 2 1 1 1 1 1 1 1 2 1 1 1 1 1 2 2 3 3 3 2 2 2 2 3 4 4 4 4 5 6 4
3 2 2 1 1 2 3 4 3 2 2 2 2 2 1 0 1 1 1 1 1 1 1 1 2 2 1 1 2 3 3 2 2 2 3 4 5 4 3 5 5 3 2
2 2 3 2 1 1 1 3 3 3 3 3 2 2 2 1 0 1 1 1 2 2 2 2 2 2 1 1 1 1 1 1 1 1 2 3 3 3 4 4 3 2 2
1 1 2 2 2 1 1 1 2 3 3 3 2 2 2 2 2 1 1 2 2 3 3 3 3 3 3 4 4 2 2 1 1 0 1 1 1 2 2 2 2 1 1
2 1 1 1 1 1 1 2 2 3 3 3 2 2 2 2 2 1 1 2 1 2 3 4 4 3 5 5 4 4 3 3 2 2 0 1 1 1 2 2 2 1 1
Wind_Direction
167 153 146 146 142 145 151 154 154 156 149 144 146 148 152 150 145 158 157 158 155 150 139 143 139 136 135 149 140 127 109 103 102 84 44 12 15 81 199 193 174 190 195
153 153 145 147 152 158 160 155 158 161 160 161 157 153 147 153 159 161 153 157 148 155 153 149 151 151 136 130 136 126 127 143 114 121 98 21 354 344 337 195 172 188 184
164 157 149 159 161 166 164 161 164 164 160 151 134 116 91 72 81 136 180 179 155 152 147 150 151 153 144 149 156 145 148 164 203 134 141 144 212 304 329 313 283 136 174
160 160 158 161 166 166 160 156 159 159 159 156 155 155 155 163 188 185 174 160 147 143 144 147 150 154 151 155 170 162 163 150 173 207 177 166 161 155 299 323 325 299 236
163 161 163 163 159 154 153 148 148 151 155 160 163 164 160 161 149 141 141 148 145 146 145 140 146 157 162 166 157 144 145 157 170 174 169 128 112 139 159 248 302 320 285
158 156 152 144 137 140 146 145 144 153 157 154 155 162 160 154 148 152 161 172 172 185 157 140 144 167 176 174 170 160 152 164 166 165 161 160 162 182 171 197 235 266 280
148 149 148 148 150 152 154 155 149 156 161 156 157 160 162 164 169 169 172 166 171 197 201 174 167 177 187 178 161 153 169 174 173 187 194 190 192 177 166 169 203 247 292
144 151 159 159 161 161 161 160 160 163 166 165 164 160 156 156 160 163 163 172 181 199 195 176 175 176 173 174 166 163 189 175 188 200 195 193 202 181 172 171 166 179 318
144 150 156 156 159 159 160 165 167 168 172 172 159 153 154 150 149 152 148 158 171 180 180 184 179 179 178 177 163 173 202 181 194 204 199 200 211 193 190 174 167 165 194
148 155 154 153 149 149 147 159 165 172 172 167 163 155 155 157 154 152 154 159 177 182 178 196 189 183 185 183 168 190 217 204 224 208 192 214 213 200 191 175 171 166 173
155 154 149 148 147 143 142 142 153 147 149 156 151 146 148 159 155 166 179 177 178 184 186 195 187 182 191 194 183 219 226 219 238 231 201 223 206 198 196 177 168 175 165
154 151 145 141 144 148 148 153 157 155 163 166 155 157 160 161 163 182 194 186 187 195 198 187 177 181 181 182 185 210 223 216 228 236 221 236 217 207 200 188 191 195 186
133 133 135 146 149 148 150 159 163 164 167 159 156 157 160 165 178 193 193 187 189 195 194 176 180 188 185 186 197 204 213 214 216 217 217 229 213 228 225 206 207 211 207
125 126 127 140 151 151 154 158 153 162 165 159 157 164 179 184 187 188 186 190 188 185 186 184 190 192 191 196 204 208 211 218 227 223 220 221 209 218 222 217 212 204 200
117 128 137 139 136 138 150 160 163 173 174 166 170 185 187 183 178 183 188 187 189 191 189 189 198 196 194 209 204 210 216 220 229 236 233 223 225 228 217 216 208 198 198
130 126 133 134 140 147 154 158 168 177 174 170 179 182 172 176 183 190 183 175 187 195 182 190 199 202 217 222 208 201 216 225 225 236 244 241 237 245 240 234 225 208 201
137 133 148 156 160 158 156 166 168 163 157 178 180 176 171 176 189 193 179 189 197 192 197 209 204 209 231 224 217 220 202 216 227 228 231 245 250 238 241 260 255 242 231
149 141 142 147 150 139 133 138 135 135 138 175 178 181 175 181 182 177 186 204 206 203 206 211 208 203 236 219 211 221 201 216 233 228 217 212 234 246 224 237 260 256 256
150 149 149 146 138 135 133 122 126 129 127 157 203 192 175 173 181 196 206 204 197 211 212 211 197 205 241 221 214 196 189 234 259 255 233 214 228 249 231 211 239 265 279
121 124 117 117 131 148 131 124 133 131 154 183 208 197 179 171 181 197 207 202 187 205 204 210 199 203 228 232 217 186 171 224 270 300 285 255 250 264 244 217 222 248 264
109 109 105 119 156 149 127 126 136 170 189 184 167 171 182 189 187 180 181 175 182 182 181 207 244 222 222 228 223 203 179 199 225 258 274 272 270 265 258 243 234 242 254
100 104 99 116 133 137 133 138 180 206 169 152 145 164 202 196 159 149 170 174 169 169 183 205 270 271 246 230 240 233 219 205 202 239 256 266 274 269 264 260 261 261 263
104 102 110 107 106 131 152 170 209 194 151 141 162 176 184 165 154 164 182 197 190 190 211 210 230 264 267 253 250 245 238 234 223 250 261 272 274 274 267 265 269 268 255
109 110 126 143 183 189 187 198 199 170 153 164 177 185 174 168 197 180 177 178 197 201 209 215 227 244 245 247 254 253 243 249 267 285 292 294 287 290 285 287 278 250 236
97 134 154 175 214 206 218 210 190 165 164 176 181 190 190 180 178 198 216 203 214 204 202 212 202 200 225 234 214 195 211 212 227 230 356 352 335 319 306 298 293 289 287
145 143 132 191 212 211 222 223 196 171 167 177 187 195 198 191 182 176 333 344 244 243 226 213 201 217 223 214 208 215 224 214 182 137 137 290 296 292 294 296 306 310 295